SSJ581 UNNT-UNTT

Flight info

Callsign SSJ581
Flight time 0h 49m
Altitude 17000
Route DIMID1K DIMID G828 NN NN1K
Aircraft AT76/M-SDFGIRY/S

Departure

Time 2026-05-05 16:21
Airport Novosibirsk Tolmachevo Airport (UNNT)

Arrival

Time 2026-05-05 17:10
Airport Tomsk Kamov Airport (UNTT)
Time Latitude Longitude Altitude Speed Heading
2026-05-05 15:57 55.01077 82.66399 369 ft 0 kts 171°
2026-05-05 16:14 55.01077 82.66398 369 ft 0 kts 171°
2026-05-05 16:14 55.01077 82.66399 369 ft 0 kts 171°
2026-05-05 16:15 55.01077 82.66398 369 ft 0 kts 171°
2026-05-05 16:16 55.01077 82.66399 369 ft 0 kts 171°
2026-05-05 16:16 55.01039 82.66466 369 ft 14 kts 75°
2026-05-05 16:17 55.01099 82.66796 369 ft 12 kts 90°
2026-05-05 16:17 55.01078 82.66925 369 ft 10 kts 92°
2026-05-05 16:18 55.01098 82.67162 369 ft 15 kts 81°
2026-05-05 16:18 55.01108 82.67332 370 ft 13 kts 89°
2026-05-05 16:18 55.01210 82.67555 370 ft 14 kts 31°
2026-05-05 16:19 55.01305 82.67653 369 ft 18 kts 31°
2026-05-05 16:19 55.01408 82.67761 369 ft 16 kts 31°
2026-05-05 16:19 55.01478 82.67648 368 ft 0 kts 261°
2026-05-05 16:20 55.01366 82.66407 371 ft 106 kts 261°
2026-05-05 16:20 55.01038 82.63190 743 ft 153 kts 255°
2026-05-05 16:21 55.00507 82.59357 1283 ft 182 kts 259°
2026-05-05 16:22 55.00266 82.52074 1605 ft 211 kts 287°
2026-05-05 16:22 55.02515 82.48751 1938 ft 222 kts 330°
2026-05-05 16:23 55.05416 82.47988 2276 ft 222 kts 20°
2026-05-05 16:23 55.06875 82.48918 2480 ft 225 kts 19°
2026-05-05 16:23 55.09897 82.50404 2912 ft 226 kts
2026-05-05 16:24 55.11450 82.50795 3134 ft 225 kts
2026-05-05 16:24 55.13004 82.51069 3362 ft 224 kts
2026-05-05 16:24 55.16079 82.51630 3765 ft 223 kts
2026-05-05 16:25 55.17308 82.51874 3935 ft 224 kts
2026-05-05 16:25 55.20421 82.52510 4373 ft 226 kts
2026-05-05 16:25 55.21979 82.52823 4592 ft 226 kts
2026-05-05 16:26 55.25083 82.53448 5012 ft 225 kts
2026-05-05 16:26 55.28142 82.54069 5449 ft 218 kts
2026-05-05 16:27 55.29628 82.54373 5824 ft 211 kts 360°
2026-05-05 16:27 55.31065 82.54666 6191 ft 206 kts 359°
2026-05-05 16:27 55.32469 82.54946 6565 ft 201 kts 359°
2026-05-05 16:27 55.33842 82.55223 6943 ft 197 kts 359°
2026-05-05 16:28 55.35195 82.55504 7317 ft 193 kts 359°
2026-05-05 16:28 55.36510 82.55772 7689 ft 188 kts 358°
2026-05-05 16:28 55.37793 82.56035 8062 ft 182 kts 358°
2026-05-05 16:28 55.39019 82.56284 8431 ft 178 kts 358°
2026-05-05 16:29 55.40220 82.56530 8801 ft 172 kts 357°
2026-05-05 16:29 55.41393 82.56771 9183 ft 166 kts 356°
2026-05-05 16:29 55.42513 82.57000 9557 ft 158 kts 356°
2026-05-05 16:29 55.43635 82.57183 9576 ft 173 kts 352°
2026-05-05 16:30 55.44948 82.57352 9525 ft 195 kts 358°
2026-05-05 16:30 55.46306 82.57669 9657 ft 203 kts 359°
2026-05-05 16:30 55.47729 82.58020 9786 ft 209 kts 360°
2026-05-05 16:30 55.49193 82.58355 9914 ft 214 kts 359°
2026-05-05 16:31 55.50693 82.58669 10038 ft 219 kts 359°
2026-05-05 16:31 55.51695 82.58878 10186 ft 217 kts 359°
2026-05-05 16:31 55.53189 82.59186 10443 ft 215 kts 359°
2026-05-05 16:31 55.54664 82.59489 10682 ft 212 kts 358°
2026-05-05 16:32 55.56123 82.59789 10931 ft 210 kts 358°
2026-05-05 16:32 55.57571 82.60088 11179 ft 208 kts 358°
2026-05-05 16:32 55.59008 82.60387 11434 ft 207 kts 358°
2026-05-05 16:32 55.60433 82.60681 11681 ft 205 kts 358°
2026-05-05 16:33 55.61839 82.60971 11932 ft 203 kts 358°
2026-05-05 16:33 55.63240 82.61258 12183 ft 202 kts 358°
2026-05-05 16:33 55.64638 82.61550 12431 ft 201 kts 358°
2026-05-05 16:33 55.66010 82.61835 12682 ft 200 kts 357°
2026-05-05 16:34 55.67397 82.62120 12930 ft 200 kts 357°
2026-05-05 16:34 55.68774 82.62404 13182 ft 198 kts 357°
2026-05-05 16:34 55.70140 82.62687 13431 ft 197 kts 357°
2026-05-05 16:34 55.71480 82.62952 13678 ft 195 kts 356°
2026-05-05 16:35 55.72835 82.63206 13929 ft 195 kts 356°
2026-05-05 16:35 55.74188 82.63482 14179 ft 194 kts 356°
2026-05-05 16:35 55.75516 82.63757 14429 ft 193 kts 356°
2026-05-05 16:35 55.76850 82.64033 14680 ft 191 kts 356°
2026-05-05 16:36 55.78154 82.64304 14930 ft 188 kts 356°
2026-05-05 16:36 55.79447 82.64577 15178 ft 186 kts 356°
2026-05-05 16:36 55.80708 82.64836 15423 ft 183 kts 356°
2026-05-05 16:36 55.81970 82.65100 15679 ft 180 kts 356°
2026-05-05 16:37 55.83196 82.65348 15922 ft 176 kts 355°
2026-05-05 16:37 55.84415 82.65592 16161 ft 174 kts 355°
2026-05-05 16:37 55.85626 82.65828 16310 ft 174 kts 353°
2026-05-05 16:37 55.86827 82.65883 16378 ft 180 kts 347°
2026-05-05 16:38 55.88133 82.65358 15796 ft 209 kts 324°
2026-05-05 16:38 55.89428 82.64398 16062 ft 207 kts 350°
2026-05-05 16:38 55.90868 82.64963 16328 ft 214 kts
2026-05-05 16:38 55.92261 82.65816 16567 ft 212 kts
2026-05-05 16:39 55.93663 82.66648 16789 ft 210 kts
2026-05-05 16:39 55.95061 82.67400 16893 ft 212 kts
2026-05-05 16:39 55.96519 82.68022 16944 ft 217 kts
2026-05-05 16:39 55.98001 82.68486 16964 ft 221 kts 359°
2026-05-05 16:40 55.99550 82.68836 16973 ft 227 kts 357°
2026-05-05 16:40 56.01133 82.69138 16986 ft 231 kts 358°
2026-05-05 16:40 56.02757 82.69431 16988 ft 236 kts 358°
2026-05-05 16:40 56.04400 82.69739 16987 ft 241 kts
2026-05-05 16:41 56.05976 82.70976 16996 ft 261 kts 34°
2026-05-05 16:41 56.07161 82.73540 16989 ft 274 kts 53°
2026-05-05 16:41 56.07977 82.76642 16988 ft 282 kts 68°
2026-05-05 16:41 56.08471 82.80097 16988 ft 287 kts 75°
2026-05-05 16:42 56.08852 82.83645 16986 ft 290 kts 76°
2026-05-05 16:42 56.09224 82.87157 16987 ft 290 kts 76°
2026-05-05 16:42 56.09639 82.90702 16986 ft 290 kts 74°
2026-05-05 16:42 56.10099 82.94243 16988 ft 290 kts 73°
2026-05-05 16:43 56.10554 82.97736 16988 ft 291 kts 73°
2026-05-05 16:43 56.11011 83.01286 16989 ft 291 kts 73°
2026-05-05 16:43 56.11466 83.04853 16989 ft 292 kts 74°
2026-05-05 16:43 56.11914 83.08364 16984 ft 292 kts 74°
2026-05-05 16:44 56.12373 83.11935 16982 ft 294 kts 73°
2026-05-05 16:44 56.12845 83.15506 16982 ft 294 kts 73°
2026-05-05 16:44 56.13322 83.19042 16984 ft 294 kts 73°
2026-05-05 16:44 56.13787 83.22627 16966 ft 293 kts 73°
2026-05-05 16:45 56.14245 83.26219 16982 ft 293 kts 74°
2026-05-05 16:45 56.14691 83.29759 16982 ft 292 kts 74°
2026-05-05 16:45 56.15143 83.33334 16979 ft 292 kts 73°
2026-05-05 16:45 56.15593 83.36852 16982 ft 291 kts 73°
2026-05-05 16:46 56.16049 83.40400 16981 ft 291 kts 74°
2026-05-05 16:46 56.16503 83.43940 16975 ft 290 kts 73°
2026-05-05 16:46 56.16960 83.47431 16982 ft 290 kts 73°
2026-05-05 16:46 56.17432 83.50962 16973 ft 289 kts 73°
2026-05-05 16:47 56.17901 83.54461 16983 ft 289 kts 73°
2026-05-05 16:47 56.18370 83.57976 16982 ft 289 kts 73°
2026-05-05 16:47 56.18829 83.61462 16979 ft 289 kts 73°
2026-05-05 16:47 56.19291 83.64988 16982 ft 288 kts 73°
2026-05-05 16:48 56.19752 83.68504 16981 ft 288 kts 73°
2026-05-05 16:48 56.20211 83.72003 16964 ft 288 kts 73°
2026-05-05 16:48 56.20670 83.75516 16981 ft 288 kts 73°
2026-05-05 16:48 56.21122 83.78982 16982 ft 288 kts 73°
2026-05-05 16:49 56.21581 83.82511 16980 ft 287 kts 73°
2026-05-05 16:49 56.22029 83.85972 16962 ft 287 kts 73°
2026-05-05 16:49 56.22484 83.89489 16975 ft 287 kts 73°
2026-05-05 16:49 56.22936 83.92998 16975 ft 287 kts 73°
2026-05-05 16:50 56.23381 83.96467 16974 ft 287 kts 74°
2026-05-05 16:50 56.23979 83.99871 16973 ft 279 kts 56°
2026-05-05 16:50 56.24880 84.02869 16974 ft 278 kts 69°
2026-05-05 16:50 56.25254 84.06330 16972 ft 281 kts 78°
2026-05-05 16:51 56.25559 84.09818 16973 ft 282 kts 77°
2026-05-05 16:51 56.25962 84.13227 16967 ft 282 kts 72°
2026-05-05 16:51 56.26506 84.16623 16976 ft 281 kts 69°
2026-05-05 16:51 56.27099 84.19993 16969 ft 282 kts 69°
2026-05-05 16:52 56.27676 84.23360 16964 ft 284 kts 69°
2026-05-05 16:52 56.28253 84.26784 16973 ft 284 kts 70°
2026-05-05 16:52 56.28802 84.30169 16969 ft 285 kts 70°
2026-05-05 16:52 56.29356 84.33607 16974 ft 285 kts 70°
2026-05-05 16:53 56.29911 84.37061 16973 ft 286 kts 70°
2026-05-05 16:53 56.30456 84.40467 16974 ft 286 kts 70°
2026-05-05 16:53 56.31009 84.43932 16967 ft 286 kts 70°
2026-05-05 16:53 56.31553 84.47342 16975 ft 286 kts 70°
2026-05-05 16:54 56.32107 84.50819 16975 ft 287 kts 70°
2026-05-05 16:54 56.32651 84.54244 16970 ft 287 kts 70°
2026-05-05 16:54 56.33200 84.57722 16974 ft 287 kts 70°
2026-05-05 16:54 56.33744 84.61156 16973 ft 287 kts 70°
2026-05-05 16:55 56.34295 84.64648 16973 ft 287 kts 70°
2026-05-05 16:55 56.34838 84.68094 16973 ft 288 kts 70°
2026-05-05 16:55 56.35385 84.71572 16961 ft 287 kts 70°
2026-05-05 16:55 56.35930 84.75054 16965 ft 288 kts 70°
2026-05-05 16:56 56.36470 84.78501 16975 ft 288 kts 70°
2026-05-05 16:56 56.37017 84.82006 16971 ft 288 kts 70°
2026-05-05 16:56 56.37556 84.85464 16972 ft 288 kts 70°
2026-05-05 16:56 56.38150 84.88916 16969 ft 283 kts 60°
2026-05-05 16:57 56.39226 84.91795 16972 ft 273 kts 44°
2026-05-05 16:57 56.40529 84.94224 16967 ft 270 kts 36°
2026-05-05 16:57 56.41950 84.96446 16961 ft 268 kts 33°
2026-05-05 16:57 56.43364 84.98590 16969 ft 269 kts 33°
2026-05-05 16:58 56.44791 85.00803 16965 ft 270 kts 35°
2026-05-05 16:58 56.46194 85.03070 16962 ft 271 kts 36°
2026-05-05 16:58 56.47594 85.05356 16960 ft 271 kts 35°
2026-05-05 16:58 56.48996 85.07654 16965 ft 271 kts 35°
2026-05-05 16:59 56.50370 85.09912 16948 ft 254 kts 36°
2026-05-05 16:59 56.51659 85.12078 16121 ft 258 kts 36°
2026-05-05 16:59 56.52998 85.14318 15211 ft 264 kts 36°
2026-05-05 16:59 56.54352 85.16556 14294 ft 266 kts 36°
2026-05-05 17:00 56.55871 85.18252 13392 ft 250 kts
2026-05-05 17:00 56.57551 85.18791 12544 ft 244 kts
2026-05-05 17:00 56.59225 85.19152 11717 ft 243 kts
2026-05-05 17:00 56.60908 85.19453 10976 ft 239 kts 359°
2026-05-05 17:01 56.62557 85.19727 10278 ft 235 kts 359°
2026-05-05 17:01 56.64168 85.19983 9594 ft 232 kts 359°
2026-05-05 17:01 56.65759 85.20227 8913 ft 230 kts 359°
2026-05-05 17:01 56.67361 85.20471 8220 ft 228 kts 359°
2026-05-05 17:02 56.68939 85.20752 7587 ft 224 kts
2026-05-05 17:02 56.70338 85.22159 7284 ft 252 kts 41°
2026-05-05 17:02 56.71221 85.25084 6963 ft 279 kts 74°
2026-05-05 17:02 56.71218 85.28680 6633 ft 286 kts 105°
2026-05-05 17:03 56.70303 85.31761 6322 ft 278 kts 136°
2026-05-05 17:03 56.68731 85.33601 6029 ft 264 kts 168°
2026-05-05 17:03 56.66959 85.33882 5747 ft 251 kts 187°
2026-05-05 17:03 56.65247 85.34116 5471 ft 251 kts 172°
2026-05-05 17:04 56.63549 85.34960 5199 ft 251 kts 169°
2026-05-05 17:04 56.61866 85.35813 4927 ft 250 kts 170°
2026-05-05 17:04 56.60188 85.36536 4649 ft 248 kts 173°
2026-05-05 17:04 56.58529 85.37148 4370 ft 246 kts 174°
2026-05-05 17:05 56.56846 85.37745 4108 ft 245 kts 173°
2026-05-05 17:05 56.55185 85.38351 3843 ft 242 kts 173°
2026-05-05 17:05 56.53587 85.38628 3585 ft 225 kts 194°
2026-05-05 17:05 56.52311 85.37253 3378 ft 213 kts 233°
2026-05-05 17:06 56.51861 85.34757 3164 ft 206 kts 261°
2026-05-05 17:06 56.51355 85.32510 2918 ft 195 kts 226°
2026-05-05 17:06 56.50152 85.31456 2688 ft 192 kts 198°
2026-05-05 17:06 56.48890 85.30788 2583 ft 181 kts 199°
2026-05-05 17:07 56.47783 85.30135 2502 ft 155 kts 201°
2026-05-05 17:07 56.46803 85.29517 2234 ft 151 kts 200°
2026-05-05 17:07 56.45780 85.28915 1856 ft 154 kts 198°
2026-05-05 17:07 56.44747 85.28409 1590 ft 152 kts 194°
2026-05-05 17:08 56.43847 85.27753 1607 ft 132 kts 210°
2026-05-05 17:08 56.43118 85.26919 1614 ft 116 kts 213°
2026-05-05 17:08 56.42497 85.26159 1465 ft 108 kts 213°
2026-05-05 17:08 56.41885 85.25384 1270 ft 110 kts 215°
2026-05-05 17:09 56.41278 85.24568 1115 ft 108 kts 215°
2026-05-05 17:09 56.40679 85.23792 980 ft 107 kts 214°
2026-05-05 17:09 56.40046 85.23053 875 ft 112 kts 210°
2026-05-05 17:09 56.39361 85.22293 679 ft 116 kts 211°
2026-05-05 17:10 56.38682 85.21490 583 ft 112 kts 213°
2026-05-05 17:10 56.38116 85.20816 562 ft 65 kts 213°
2026-05-05 17:10 56.37951 85.20616 564 ft 7 kts 229°
2026-05-05 17:10 56.37931 85.20570 565 ft 2 kts 180°
2026-05-05 17:11 56.37926 85.20608 565 ft 5 kts 73°
2026-05-05 17:11 56.37992 85.20679 563 ft 14 kts 28°
2026-05-05 17:11 56.38068 85.20747 570 ft 8 kts 11°
2026-05-05 17:11 56.38117 85.20705 564 ft 7 kts 309°
2026-05-05 17:12 56.38146 85.20627 565 ft 9 kts 303°
2026-05-05 17:12 56.38185 85.20526 565 ft 10 kts 315°
2026-05-05 17:12 56.38245 85.20550 565 ft 10 kts 35°
2026-05-05 17:12 56.38308 85.20625 565 ft 11 kts 33°
2026-05-05 17:13 56.38376 85.20706 565 ft 12 kts 33°
2026-05-05 17:13 56.38447 85.20791 565 ft 13 kts 33°
2026-05-05 17:13 56.38521 85.20877 565 ft 13 kts 33°
2026-05-05 17:13 56.38597 85.20966 565 ft 13 kts 33°
2026-05-05 17:14 56.38673 85.21055 565 ft 13 kts 33°
2026-05-05 17:14 56.38748 85.21147 565 ft 13 kts 32°
2026-05-05 17:14 56.38806 85.21188 565 ft 7 kts 340°
2026-05-05 17:14 56.38838 85.21117 565 ft 4 kts 304°
2026-05-05 17:15 56.38840 85.21110 565 ft 0 kts 303°